Weather in Shakhtyorsk

Russia / Sakhalin District     49˚09′35″N   142˚06′18″E
temp.,
°C
wind,
m/s
gust,
m/s
humid.,
%
clouds,
%
prec.,
mm/h
press.,
hPa
HPBL,
m
28 november, sat
sat2823:00−5˚nw6758100 0.1 10141231
02:00−5˚nw5659100 0.1 10141062
05:00−5˚nw7762100 0.1 10131120
08:00−4˚nnw5659100 0.0 10141092
11:00−4˚nnw6663100 0.1 10141278
14:00−4˚nw6768100 0.1 10131136
17:00−5˚nnw7880100 0.5 1013962
20:00−5˚n7978100 0.4 10141068
29 november, sun
sun2923:00−5˚n8973100 0.8 10141197
02:00−5˚nnw81086100 0.7 10141036
05:00−5˚nnw7877100 1.2 10141051
08:00−5˚nnw6777100 0.2 1015937
11:00−5˚nnw6769100 0.4 10151055
14:00−5˚nnw6664100 0.1 10141165
17:00−5˚nnw5667100 0.2 1015979
20:00−5˚nw6669100 0.3 1016881
30 november, mon
mon3023:00−5˚nw7885100 1.1 1017788
02:00−5˚nw8981100 1.8 1017883
05:00−5˚wnw7772100 2.3 1017770
08:00−5˚wnw6773100 0.1 1018848
11:00−5˚nw6674100 0.3 1018918
14:00−6˚wnw6671100 0.4 1017977
17:00−6˚nw7769100 0.5 1017982
20:00−6˚nw7866100 0.1 10181264
1 december, tue
tue123:00−6˚wnw7868100 0.4 10171174
02:00−6˚nw6782100 0.3 1017758
05:00−6˚nw7872100 0.6 1017986
08:00−5˚nnw11139096 1.7 10171265
11:00−5˚nnw13158598 2.5 10191430
14:00−4˚n121382100 0.4 10191255
17:00−4˚n8979100 0.7 10201016
20:00−5˚nnw5681100 0.4 1022696
2 december, wed
wed223:00−5˚nw4563100 0.5 1022940
02:00−6˚nw786486 0.0 1021812
05:00−5˚w566482 0.1 10201038
08:00−7˚wnw776792 0.1 1019863
11:00−7˚w456594 0.1 10191127
14:00−7˚wnw336999 0.0 1017885
17:00−7˚nw347099 0.1 1017824
20:00−7˚wnw3464100 0.1 1018883